• Join FlightAware (Why Join?)
  • Login
  • US Flag GB Flag 
11:16 EST


 

Airport Tracker/Info


-or-


 

Live Flight TrackerFlight Track Log ✈ N75AW ✈ 21-Nov-2013 ✈ MWCB / CYB - KAPF

Flight Track Log - Related Links

Times and Time Zones

All times are in EST time to prevent confusion due to time zone crossing. See the N75AW flight status page for this flight to view local times or setup timezone preferences in your user account.

Time Position Orientation Groundspeed Altitude Reporting Facility
EST Latitude Longitude Course Direction KTS MPH feet Rate Location/Type
13:15 23.8653 -81.2503 11° North 269 310 24,100  Level Miami Center
13:16 23.9411 -81.2347 11° North 274 315 24,100  Level Miami Center
13:17 24.0147 -81.2167 13° North 274 315 24,100  Level Miami Center
13:18 24.0925 -81.2011 10° North 274 315 24,100 -150 Level Miami Center
13:19 24.1658 -81.1925 North 274 315 23,800 -550 Descending Miami Center
13:20 24.2456 -81.1747 11° North 280 322 23,000 -900 Descending Miami Center
13:21 24.3317 -81.1617 North 285 328 22,000 -1,000 Descending Miami Center
13:22 24.4147 -81.1758 351° North 291 335 21,000 -800 Descending Miami Center
13:23 24.4931 -81.2106 338° Northwest 291 335 20,400 -600 Descending Miami Center
13:24 24.5697 -81.2361 343° North 291 335 19,800 -550 Descending Miami Center
13:25 24.6483 -81.2617 344° North 291 335 19,300 -350 Descending Miami Center
13:26 24.7247 -81.2894 342° North 291 335 19,100 -100 Descending Miami Center
13:27 24.7969 -81.3150 342° North 280 322 19,100  Level Miami Center
13:28 24.8714 -81.3383 344° North 280 322 19,100 50 Level Miami Center
13:29 24.9439 -81.3661 341° North 280 322 19,200 -400 Climbing Miami Center
13:30 25.0183 -81.3894 344° North 274 315 18,300 -1,000 Descending Miami Center
13:31 25.0989 -81.4131 345° North 287 330 17,200 -1,250 Descending Miami Center
13:32 25.1756 -81.4389 343° North 292 336 15,800 -1,350 Descending Miami Center
13:33 25.2539 -81.4672 342° North 292 336 14,500 -1,350 Descending Miami Center
13:34 25.3283 -81.4931 343° North 287 330 13,100 -1,350 Descending Miami Center
13:35 25.4028 -81.5189 343° North 282 325 11,800 -1,150 Descending Miami Center
13:36 25.4644 -81.5419 341° North 282 325 10,800 -1,150 Descending Miami Center
13:37 25.5472 -81.5681 344° North 282 325 9,500 -1,250 Descending Miami Center
13:38 25.6194 -81.5939 342° North 282 325 8,300 -1,250 Descending Miami Center
13:39 25.6981 -81.6178 345° North 282 325 7,000 -1,200 Descending Miami Center
13:40 25.7683 -81.6436 342° North 270 311 5,900 -1,050 Descending Miami Center
13:41 25.8322 -81.6647 343° North 256 295 4,900 -1,000 Descending Miami Center
13:42 25.8989 -81.6742 353° North 244 281 3,900 -950 Descending Miami Center
13:43 25.9544 -81.6950 341° North 221 254 3,000 -850 Descending Miami Center
13:44 26.0103 -81.7133 344° North 210 242 2,200 -700 Descending Miami Center
13:45 26.0556 -81.7336 338° Northwest 200 230 1,600 -450 Descending Miami Center
13:46 26.1050 -81.7519 342° North 190 219 1,300 -600 Descending Miami Center
13:47 26.1383 -81.7578 351° North 141 162 400 -900 Descending Miami Center
13:49 26.1500 -81.7667 340° North  Level FlightAware Approximate